Content
SEND FEEDBACK

Daily
Averages
Monthly
Summary
Malaysia

KUALA LUMPUR, MALAYSIA


Home > Asia > Malaysia
Elevation: 72 feet     Latitude: 03 07N     Longitude: 101 33E

WEATHER
 
SELECT A DAY
Number of Records: 122,934;   Date Range: 7/19/98 - 9/29/14
 
SHARE

PRINT THIS DATA

[ ← Previous Day ]
WEATHER ALMANAC - JANUARY 21, 2013
[ Next Day → ]
[ °C ]   °F
Weather ElementAverageHighLow
Temperature81.4 °F91.4 °F (4:00 pm)77 °F (1:00 am)
Dewpoint76.4 °F78.8 °F (4:00 pm)73.4 °F (12:00 pm)
Humidity86 %100 % (1:00 am)59 % (1:00 pm)
Barometer29.87 in29.95 in (9:00 am)29.77 in (4:00 pm)
Wind Speed3 mph9.2 mph (5:00 pm)
Weather ElementAverage
Visibility5.3 mi
Wind DirectionSSW (197.4 °)

Weather ElementTotal
Precipitation---
Cooling Degree Days19.2 (Base 65)
Growing Degree Days34.2 (Base 50)
Averaged from 23 records on January 21, 2013
WEATHER CONDITIONS BREAKOUT
WIND DIRECTION BREAKOUT
WEATHER BY HOUR - JANUARY 21, 2013
[ °C ]   °F
Local TimeTemperatureDewpointHumidityBarometerVisibilityWind DirectionWind SpeedGust SpeedPrecipitationEventsConditions
1:00 AM77.0 °F77.0 °F100 %29.89 in5.0 miCalmMostly Cloudy
2:00 AM77.0 °F77.0 °F100 %29.89 in5.0 miCalmMostly Cloudy
3:00 AM77.0 °F77.0 °F100 %29.86 in5.0 miCalmMostly Cloudy
4:00 AM77.0 °F77.0 °F100 %29.86 in4.3 miCalmMostly Cloudy
5:00 AM77.0 °F77.0 °F100 %29.83 in4.3 miNNW (330°)1.2 mphMostly Cloudy
6:00 AM77.0 °F75.2 °F94 %29.86 in4.3 miCalmMostly Cloudy
7:00 AM77.0 °F77.0 °F100 %29.86 in4.3 miCalmMostly Cloudy
8:00 AM77.0 °F77.0 °F100 %29.89 in5.6 miCalmMostly Cloudy
9:00 AM78.8 °F77.0 °F94 %29.95 in5.6 miNorth (350°)2.3 mphMostly Cloudy
10:00 AM80.6 °F77.0 °F89 %29.95 in3.7 miWest (270°)3.5 mphMostly Cloudy
11:00 AM84.2 °F75.2 °F74 %29.95 in5.6 miNW (320°)5.8 mphMostly Cloudy
12:00 PM86.0 °F73.4 °F66 %29.92 in6.2 miNorth (350°)5.8 mphMostly Cloudy
1:00 PM89.6 °F73.4 °F59 %29.89 in6.2 miNorth (350°)6.9 mphMostly Cloudy
2:00 PM89.6 °F75.2 °F62 %29.86 in6.2 miNNW (330°)2.3 mphMostly Cloudy
3:00 PM89.6 °F75.2 °F62 %29.83 in6.2 miNNW (340°)5.8 mphMostly Cloudy
4:00 PM91.4 °F78.8 °F66 %29.77 in6.2 miNW (310°)3.5 mphMostly Cloudy
5:00 PM86.0 °F77.0 °F74 %29.77 in5.6 miNNW (340°)9.2 mphThunderstormThunderstorm
6:00 PM82.4 °F77.0 °F84 %29.80 in5.6 miWNW (290°)5.8 mphMostly Cloudy
7:00 PM80.6 °F77.0 °F89 %29.83 in6.2 miNW (310°)3.5 mphMostly Cloudy
8:00 PM80.6 °F77.0 °F89 %29.86 in5.6 miWest (280°)3.5 mphMostly Cloudy
9:00 PM78.8 °F77.0 °F94 %29.89 in5.0 miNNE (20°)4.6 mphMostly Cloudy
10:00 PM78.8 °F77.0 °F94 %29.92 in5.0 miNorth (10°)1.2 mphMostly Cloudy
11:00 PM78.8 °F75.2 °F89 %29.92 in5.6 miNNW (340°)3.5 mphMostly Cloudy
Hourly data recorded from WMSA, located miles away from Kuala Lumpur, Malaysia







STORIES FROM OUR PARTNERS